Probability
71 65 84 84 65 55 61 61 48 61 55 48 39 39 29 29 26 29 68 68 68 71 68 61 61 61 68 58 58 52 45 55 48 48 29 32 32 19 13 13 13 10 6
74 74 84 84 61 55 45 35 32 55 48 48 42 42 35 23 29 32 42 68 68 77 65 58 55 58 71 58 61 52 45 42 55 48 39 29 32 32 26 10 10 10 3
84 81 58 65 48 52 61 65 48 48 55 42 35 29 32 32 29 32 35 45 58 65 71 65 65 58 52 61 55 52 55 52 52 52 48 35 42 39 26 23 10 19 19
81 87 58 55 61 48 48 58 58 45 52 45 42 32 23 35 32 32 35 45 45 39 65 68 65 65 65 61 52 58 58 55 58 58 58 45 42 35 35 23 19 16 19
81 71 71 81 71 55 52 39 42 39 45 55 32 42 26 26 32 26 26 32 35 42 52 68 71 81 68 65 74 77 77 77 61 55 42 42 35 39 35 29 26 23 10
77 74 71 90 61 55 61 68 74 74 71 55 19 23 29 29 35 26 35 23 35 32 23 29 55 55 74 81 74 68 68 71 68 58 45 45 35 35 42 29 26 19 13
84 90 71 90 90 61 68 55 61 65 52 61 45 42 32 19 35 42 39 29 19 23 48 48 42 45 55 52 55 77 61 61 71 65 58 52 45 39 35 29 23 13 13
90 68 87 87 94 97 81 68 77 68 45 52 42 39 35 26 35 13 32 32 23 19 23 26 45 55 45 48 35 48 68 65 61 81 81 74 61 58 45 39 35 29 16
84 81 81 84 94 84 74 77 74 71 55 48 45 32 29 32 23 13 16 26 39 32 26 26 32 48 48 52 61 19 52 65 71 68 71 77 65 58 45 39 35 29 23
84 81 84 84 94 77 84 71 58 68 65 48 52 58 48 29 39 10 10 10 16 35 35 16 19 26 45 39 55 29 16 26 32 52 68 68 71 61 42 35 39 32 26
84 84 84 87 87 87 81 81 68 65 58 58 48 52 48 52 32 23 29 29 26 16 23 19 23 23 23 35 61 29 10 0 0 19 39 55 65 68 55 42 35 35 23
87 74 77 84 94 90 87 84 77 61 58 65 65 52 45 45 45 35 29 29 32 10 16 32 29 23 19 16 16 3 3 0 0 0 0 19 39 52 48 42 35 39 35
81 84 74 84 84 87 84 81 84 65 55 65 65 55 39 32 35 26 29 29 16 13 23 16 26 26 19 19 26 3 3 0 0 0 0 0 0 3 10 26 35 35 35
74 77 77 84 74 71 65 81 65 68 68 68 42 58 65 39 39 35 48 32 19 23 16 6 16 23 26 29 13 0 10 0 0 0 0 0 0 0 0 0 3 3 13
71 77 77 74 68 68 74 81 71 74 77 68 58 55 55 52 48 42 39 42 32 16 10 6 10 10 29 35 6 16 26 0 0 0 0 0 0 0 0 0 0 0 0
71 68 65 61 61 65 68 77 68 68 71 58 65 55 52 39 39 45 29 32 39 29 10 3 29 19 35 10 6 16 16 10 0 0 0 0 0 0 0 0 0 0 0
71 71 68 61 58 58 58 71 48 55 58 52 29 29 29 32 35 39 32 32 29 19 19 6 16 16 42 35 26 26 13 16 16 0 0 0 0 0 0 0 0 0 0
71 65 61 65 58 52 48 45 42 32 35 42 29 23 29 26 35 32 39 32 29 35 19 13 19 13 42 32 26 32 6 6 6 0 0 0 0 0 0 0 0 0 0
48 45 55 55 55 48 45 45 42 29 23 29 23 23 29 29 32 29 29 32 26 16 13 10 10 29 23 16 26 16 3 16 3 0 0 0 0 0 0 0 0 0 0
45 48 48 48 45 42 39 32 29 29 26 26 26 23 23 16 19 23 13 23 26 23 16 16 6 16 13 13 13 16 10 10 6 3 0 0 0 0 0 0 0 0 0
42 48 45 39 39 32 23 32 23 19 23 23 23 16 16 10 10 10 6 16 16 19 10 13 10 10 10 10 0 0 3 6 10 3 10 6 6 0 0 0 0 0 0
42 39 39 35 32 19 3 0 10 23 23 16 19 19 13 10 0 0 0 0 0 3 6 6 3 0 0 3 16 3 3 6 6 13 6 10 6 10 6 0 0 0 0
35 35 35 32 32 10 3 0 0 6 16 13 13 10 6 6 0 6 0 0 0 0 0 0 0 0 0 0 6 6 6 6 6 6 10 13 13 6 3 0 0 0 0
35 29 29 26 16 10 3 0 0 0 6 6 10 6 10 6 3 6 6 0 0 0 0 0 0 0 3 3 3 3 3 3 3 3 3 3 3 6 0 3 0 0 0
29 26 19 16 13 10 3 0 0 10 3 6 6 3 3 6 3 0 0 3 0 0 0 0 0 0 0 0 0 0 0 0 0 3 3 0 3 3 0 0 0 0 0
19 16 13 10 10 6 3 0 0 3 0 0 6 3 0 0 0 0 0 3 3 0 0 0 0 0 0 0 0 0 0 0 0 0 0 0 0 0 0 0 0 0 0
Height
5914 5914 5915 5915 5915 5916 5916 5916 5916 5916 5917 5917 5917 5917 5917 5917 5916 5916 5916 5916 5916 5916 5916 5915 5915 5915 5914 5914 5914 5913 5913 5913 5912 5912 5912 5911 5911 5911 5911 5911 5911 5911 5911
5914 5915 5915 5915 5916 5916 5916 5916 5916 5917 5917 5917 5917 5917 5917 5917 5917 5916 5916 5916 5916 5916 5916 5915 5915 5915 5914 5914 5914 5914 5913 5913 5912 5912 5911 5911 5911 5911 5911 5911 5911 5910 5910
5914 5915 5915 5915 5915 5916 5916 5916 5916 5916 5917 5917 5918 5918 5917 5917 5917 5917 5917 5916 5916 5916 5916 5916 5915 5915 5915 5914 5914 5914 5913 5913 5912 5912 5911 5911 5911 5910 5910 5910 5910 5910 5910
5914 5914 5915 5915 5915 5916 5916 5916 5916 5917 5917 5917 5918 5918 5918 5917 5917 5917 5917 5916 5916 5916 5916 5915 5915 5915 5914 5914 5914 5913 5913 5912 5912 5911 5911 5910 5910 5910 5909 5909 5909 5909 5909
5913 5914 5914 5915 5915 5915 5915 5916 5916 5916 5917 5917 5917 5917 5917 5917 5917 5917 5917 5916 5916 5916 5915 5915 5915 5914 5914 5914 5913 5913 5912 5911 5911 5910 5910 5910 5909 5909 5909 5908 5908 5908 5907
5912 5913 5913 5914 5914 5914 5915 5915 5915 5916 5916 5916 5916 5916 5917 5917 5916 5916 5916 5916 5915 5915 5915 5914 5914 5914 5913 5913 5912 5912 5911 5910 5910 5909 5909 5908 5908 5908 5907 5907 5907 5906 5906
5911 5911 5912 5912 5913 5913 5914 5914 5914 5915 5915 5915 5915 5916 5916 5915 5915 5915 5915 5915 5914 5914 5914 5913 5913 5912 5912 5912 5911 5910 5910 5909 5909 5908 5907 5907 5907 5906 5906 5905 5905 5904 5904
5909 5909 5910 5911 5911 5912 5912 5913 5913 5913 5914 5914 5914 5914 5914 5915 5914 5914 5914 5914 5913 5913 5912 5912 5911 5911 5910 5910 5909 5909 5908 5908 5907 5906 5906 5905 5905 5904 5904 5903 5903 5902 5901
5907 5907 5908 5908 5909 5910 5910 5911 5911 5912 5912 5912 5912 5913 5913 5913 5912 5912 5912 5912 5911 5911 5910 5910 5909 5909 5908 5908 5907 5907 5906 5906 5905 5904 5904 5903 5902 5902 5901 5901 5900 5899 5898
5905 5905 5906 5906 5907 5908 5908 5909 5909 5910 5910 5910 5910 5910 5910 5910 5910 5910 5910 5909 5909 5909 5908 5908 5907 5906 5906 5905 5905 5904 5904 5903 5902 5901 5901 5900 5899 5898 5898 5897 5896 5896 5895
5903 5903 5903 5904 5905 5905 5906 5906 5907 5907 5907 5907 5908 5908 5907 5907 5907 5907 5907 5906 5906 5905 5905 5905 5904 5903 5903 5902 5902 5901 5900 5899 5899 5898 5897 5896 5895 5894 5894 5893 5892 5892 5891
5900 5900 5901 5901 5902 5903 5903 5904 5904 5904 5904 5905 5904 5904 5904 5904 5904 5903 5903 5903 5902 5902 5901 5901 5900 5900 5899 5898 5898 5897 5896 5895 5895 5894 5893 5892 5891 5890 5889 5889 5888 5887 5886
5898 5898 5898 5899 5899 5900 5900 5901 5901 5901 5901 5901 5901 5901 5901 5900 5900 5899 5899 5899 5898 5898 5897 5897 5896 5895 5894 5894 5893 5892 5891 5891 5890 5889 5888 5887 5886 5885 5884 5884 5883 5882 5881
5895 5895 5896 5896 5896 5896 5897 5897 5897 5898 5898 5898 5897 5897 5897 5896 5896 5895 5895 5894 5894 5893 5892 5892 5891 5890 5889 5889 5888 5887 5886 5885 5884 5883 5882 5881 5880 5880 5879 5878 5877 5876 5875
5892 5892 5893 5893 5893 5893 5893 5894 5894 5894 5894 5894 5893 5893 5893 5892 5891 5891 5890 5890 5889 5888 5887 5887 5886 5885 5884 5883 5882 5881 5880 5879 5878 5877 5876 5875 5874 5873 5872 5871 5870 5869 5868
5889 5889 5890 5890 5890 5890 5890 5890 5890 5890 5890 5889 5889 5889 5888 5887 5887 5886 5885 5884 5884 5883 5882 5881 5880 5879 5878 5877 5876 5875 5874 5873 5872 5870 5869 5868 5867 5866 5865 5864 5862 5861 5860
5886 5886 5886 5886 5886 5886 5886 5886 5886 5886 5885 5885 5884 5884 5883 5882 5881 5880 5880 5879 5878 5877 5876 5875 5874 5872 5871 5871 5869 5868 5867 5866 5865 5863 5862 5861 5859 5858 5857 5855 5854 5853 5852
5882 5882 5883 5882 5882 5882 5882 5882 5882 5881 5881 5880 5879 5878 5877 5876 5875 5874 5873 5873 5872 5871 5870 5869 5867 5866 5865 5864 5863 5861 5860 5859 5857 5856 5854 5853 5851 5850 5848 5847 5845 5844 5842
5878 5878 5879 5878 5878 5879 5878 5878 5877 5877 5876 5875 5874 5873 5872 5871 5870 5869 5867 5867 5866 5865 5864 5862 5861 5859 5858 5857 5856 5854 5853 5851 5849 5848 5846 5844 5843 5841 5840 5838 5836 5834 5832
5875 5875 5875 5875 5875 5874 5874 5873 5873 5872 5871 5870 5869 5868 5867 5865 5864 5863 5862 5861 5860 5859 5857 5856 5854 5853 5851 5850 5848 5846 5844 5843 5841 5839 5838 5836 5834 5832 5830 5828 5827 5825 5823
5871 5870 5871 5871 5870 5870 5869 5868 5868 5867 5866 5865 5864 5863 5861 5860 5859 5857 5856 5855 5854 5852 5851 5849 5847 5846 5844 5842 5840 5838 5836 5834 5832 5830 5828 5827 5825 5823 5821 5819 5816 5814 5812
5867 5867 5867 5866 5866 5866 5865 5864 5863 5862 5861 5860 5859 5857 5856 5855 5853 5852 5851 5849 5847 5846 5844 5842 5840 5838 5836 5834 5832 5830 5827 5825 5823 5821 5819 5817 5814 5812 5810 5808 5805 5803 5800
5863 5863 5863 5862 5862 5861 5860 5859 5858 5857 5856 5855 5854 5852 5851 5849 5848 5846 5845 5843 5841 5839 5837 5835 5833 5831 5829 5827 5824 5821 5818 5816 5814 5811 5809 5806 5804 5801 5799 5796 5794 5791 5788
5859 5859 5858 5857 5857 5856 5855 5854 5853 5851 5850 5849 5848 5846 5845 5843 5842 5840 5838 5836 5834 5832 5830 5828 5825 5823 5820 5818 5815 5812 5809 5806 5804 5801 5799 5796 5793 5790 5787 5784 5782 5778 5775
5856 5855 5853 5853 5852 5851 5850 5849 5847 5846 5844 5843 5842 5841 5839 5837 5835 5834 5832 5830 5828 5825 5822 5820 5817 5815 5812 5809 5806 5803 5799 5796 5793 5791 5787 5785 5781 5778 5775 5772 5769 5766 5762
5852 5850 5849 5848 5847 5846 5845 5844 5843 5841 5839 5838 5836 5835 5833 5831 5829 5827 5825 5823 5821 5818 5816 5813 5810 5807 5804 5800 5797 5793 5790 5786 5783 5780 5776 5773 5770 5766 5763 5759 5756 5752 5749
Wind_Speed
4 4 4 4 4 4 4 4 3 3 3 2 2 2 2 2 2 2 1 1 2 2 2 2 2 2 2 2 2 2 2 2 1 1 1 1 1 1 0 1 1 1 1
4 4 4 3 3 3 4 4 3 3 2 2 1 1 1 1 1 1 1 1 2 2 1 2 2 1 1 1 2 2 2 2 2 2 2 2 2 2 2 2 2 2 3
4 4 4 3 3 3 4 4 3 2 2 1 1 1 1 1 1 0 0 1 2 2 2 2 2 1 1 2 2 2 2 3 3 3 3 3 3 3 3 3 3 4 4
5 5 5 5 4 3 4 4 3 3 2 2 1 1 1 1 1 1 1 1 2 2 2 2 2 2 2 2 2 3 3 3 3 3 3 3 3 4 4 4 4 5 5
5 5 6 6 5 5 4 4 4 3 3 3 3 3 2 2 2 2 2 2 2 3 3 3 3 3 3 3 3 3 3 4 4 4 4 4 4 4 4 5 5 6 6
6 6 6 7 7 6 6 5 5 5 5 5 4 4 4 4 4 4 4 4 4 4 4 4 4 4 5 4 4 4 5 5 5 5 5 5 5 6 6 6 6 7 7
8 8 8 8 8 7 7 6 7 7 6 6 6 6 6 6 6 6 6 6 5 5 6 6 6 6 6 6 6 6 6 6 6 6 7 7 7 7 8 8 8 9 9
8 8 8 9 9 8 8 9 8 8 8 8 8 7 8 8 8 8 8 8 8 8 8 8 8 7 8 8 8 8 8 8 8 8 8 8 9 9 10 10 10 10 11
10 9 9 9 10 10 10 10 10 10 10 10 9 10 10 10 10 11 11 10 10 10 10 9 9 9 10 10 10 10 10 10 10 11 11 11 11 11 12 12 12 12 12
9 9 8 9 10 10 10 10 11 11 12 12 12 12 12 12 13 13 13 13 13 12 12 12 12 12 12 12 12 12 12 12 12 13 13 14 14 15 15 14 14 14 14
9 9 9 9 9 10 11 11 11 11 12 13 13 14 14 14 14 15 15 15 15 15 15 15 15 14 14 14 15 15 15 15 15 15 16 16 16 17 17 16 16 17 16
10 10 10 10 10 11 12 12 12 13 13 14 14 15 15 16 16 16 16 16 17 17 17 17 17 17 17 17 17 17 18 18 18 18 19 19 19 19 19 19 19 19 19
12 11 11 11 11 12 12 13 14 14 15 15 16 16 16 17 17 17 18 18 19 19 19 19 19 19 19 20 20 20 20 20 21 21 21 21 22 22 22 22 23 22 22
13 13 13 13 13 13 13 14 15 15 15 16 17 17 17 18 18 18 19 19 20 20 21 21 21 22 22 22 22 22 22 22 22 23 23 23 24 24 24 25 25 25 26
13 13 14 14 14 15 15 15 15 16 17 17 18 18 19 19 19 19 20 20 21 21 22 22 23 23 23 24 24 24 24 24 25 25 25 25 26 26 27 27 27 28 28
14 13 13 14 14 15 16 16 16 16 17 18 18 19 20 20 20 21 21 21 22 22 22 23 24 25 25 25 25 25 26 26 26 26 27 27 28 28 28 28 29 29 30
14 14 14 14 15 16 16 16 17 18 18 19 20 20 21 22 22 23 23 23 23 23 23 23 25 26 27 27 27 27 27 27 27 28 29 29 30 30 31 31 32 33 34
16 15 15 16 16 16 16 17 18 19 19 20 20 21 22 22 22 23 23 23 23 24 24 25 26 27 27 28 28 28 29 30 30 29 30 31 31 31 32 32 33 34 35
15 16 16 17 17 17 18 18 19 20 19 19 20 20 21 22 22 22 22 23 23 24 24 25 26 27 28 28 29 30 31 32 32 31 31 32 33 33 34 35 35 36 36
14 16 16 16 17 18 19 19 20 20 20 20 20 21 21 22 22 22 22 23 23 24 25 26 26 27 28 29 30 32 33 32 32 33 34 34 35 35 36 37 37 37 38
15 16 16 17 18 18 19 19 20 20 20 20 20 21 21 21 21 21 22 23 24 25 26 27 27 28 29 30 31 32 33 34 34 34 36 36 36 37 38 38 39 39 40
16 16 17 17 18 18 19 19 20 21 21 21 22 22 22 22 22 22 24 24 26 26 27 27 28 29 29 29 31 32 33 33 34 34 36 37 37 38 39 39 39 40 41
16 17 18 19 19 19 19 20 21 21 22 23 23 23 23 24 24 24 25 25 25 26 27 27 27 28 30 30 32 32 33 34 35 35 37 37 39 40 40 40 40 41 42
17 18 18 19 20 20 21 22 22 23 23 23 23 23 23 24 25 25 25 24 25 26 26 27 28 29 30 31 33 33 34 36 36 37 38 39 39 40 40 40 41 42 43
16 17 18 19 19 19 21 22 23 23 23 22 23 23 23 24 25 25 25 26 26 27 28 29 29 30 31 33 34 34 35 36 37 38 39 40 41 41 41 43 44 44 45
17 17 18 19 20 21 21 22 22 22 22 22 23 23 24 25 25 25 26 27 27 28 29 29 30 31 33 34 35 36 36 37 38 39 39 40 40 40 41 43 44 44 44
Wind_Direction
166 163 160 158 151 144 143 146 149 146 148 146 120 98 91 97 99 100 81 46 30 34 38 46 43 49 50 45 31 20 15 18 16 8 14 19 7 341 296 260 271 271 270
183 177 176 177 172 164 161 161 157 153 158 164 147 113 90 104 95 117 75 26 15 9 7 9 13 18 16 2 353 352 345 335 334 327 319 307 296 290 286 275 279 281 278
199 192 195 198 199 191 189 184 179 181 187 186 183 163 97 122 106 71 4 342 348 346 342 338 353 354 345 341 340 337 333 325 318 316 311 303 296 292 290 287 287 287 285
213 211 214 216 220 216 206 206 204 198 212 221 225 246 275 269 257 302 314 319 320 313 318 322 322 317 312 317 322 324 324 312 308 305 302 301 298 295 292 289 288 289 289
230 229 227 228 232 232 222 220 219 214 223 233 241 252 267 271 272 275 291 303 306 299 301 305 304 291 291 303 306 312 315 312 305 302 298 298 295 293 294 291 290 287 285
238 239 238 235 239 238 233 230 232 229 233 240 245 253 263 268 268 266 276 289 297 293 290 292 293 286 282 288 295 300 303 303 299 294 291 288 288 286 288 289 290 289 286
244 245 244 243 245 247 243 240 241 240 241 244 249 257 266 268 267 267 274 279 284 289 287 287 285 282 282 285 287 289 291 292 291 289 287 285 285 287 287 285 287 288 287
248 250 248 247 247 248 248 248 247 247 247 249 253 259 266 268 268 269 275 277 278 282 285 282 281 279 279 282 283 283 286 286 286 286 283 282 282 283 283 285 285 286 286
256 259 254 250 248 249 251 252 252 254 254 254 258 262 266 269 270 271 274 276 277 280 281 277 275 275 277 277 278 280 282 283 282 282 281 280 279 281 283 284 285 286 286
262 256 254 249 248 248 250 252 255 255 257 259 263 266 268 270 271 272 273 273 275 277 277 275 273 273 273 274 275 277 279 280 281 280 280 279 277 277 278 279 282 281 282
260 261 261 255 252 252 252 255 257 257 259 261 264 267 268 270 271 270 272 273 274 274 274 275 275 273 272 273 274 275 277 279 279 279 280 280 278 276 278 277 278 279 279
261 263 265 261 260 259 256 255 259 262 264 265 266 267 268 270 272 271 271 271 273 274 274 273 274 274 274 274 273 274 276 276 278 279 278 278 277 277 278 276 276 277 277
262 265 264 265 265 263 262 262 265 267 267 269 268 268 269 271 272 271 271 271 273 274 275 275 274 273 274 274 275 275 276 276 277 277 278 277 276 277 277 275 275 275 275
263 265 265 266 266 267 268 265 268 269 270 269 269 269 270 270 270 272 272 272 272 273 274 275 276 275 275 275 276 277 278 278 279 279 279 279 277 276 276 276 276 276 276
266 265 269 267 266 266 268 269 270 271 273 271 270 269 272 272 271 272 273 273 273 275 276 275 274 275 277 278 278 280 280 280 279 279 280 280 280 279 278 278 276 277 276
267 265 269 271 271 271 270 270 272 275 276 273 271 271 271 274 275 274 272 273 274 275 275 275 275 275 278 279 279 280 281 281 280 279 279 280 280 280 280 279 277 276 276
267 268 272 274 274 272 271 273 274 277 277 276 275 274 275 276 276 275 274 274 274 274 276 276 278 277 278 280 280 281 282 282 282 281 280 279 279 279 279 280 279 278 278
265 268 269 271 273 275 275 274 274 278 279 278 278 278 278 278 277 275 275 275 276 277 278 279 279 279 281 282 281 280 282 282 282 282 282 280 279 279 280 280 280 280 278
265 267 269 271 271 274 275 275 276 278 277 278 279 279 280 279 278 279 279 277 278 279 281 282 282 281 281 282 281 281 282 283 282 282 281 280 281 281 280 280 280 281 279
268 268 270 271 273 275 275 275 276 276 277 279 279 278 281 281 281 281 280 279 280 283 285 285 284 283 282 281 282 283 283 283 284 283 283 283 282 281 282 281 281 281 282
277 274 272 273 276 277 276 275 276 275 278 280 280 280 280 281 282 284 285 285 284 284 285 286 287 286 285 284 284 285 284 284 284 284 284 284 284 284 284 283 282 282 283
276 276 274 275 277 277 277 277 278 278 279 280 281 282 281 283 285 287 287 286 286 286 285 286 287 287 286 285 286 287 287 285 286 286 286 286 286 286 286 285 285 284 283
275 276 276 275 275 277 278 279 280 280 280 280 281 281 282 284 285 287 286 286 287 287 287 287 288 288 287 287 288 288 288 288 288 286 286 287 288 287 287 286 287 286 285
276 277 277 276 276 276 278 279 279 280 280 280 282 285 286 286 287 289 288 288 289 289 289 289 291 291 290 290 290 289 289 289 289 288 287 288 289 288 288 288 288 287 286
281 281 280 278 279 279 281 282 282 282 282 282 282 284 285 287 288 288 287 289 289 290 291 292 292 292 292 293 292 290 289 290 290 289 288 288 288 289 289 290 289 288 288
283 285 285 282 281 280 281 282 283 284 286 288 288 288 290 289 288 289 291 291 292 293 294 294 294 294 294 294 293 293 292 293 293 293 293 292 292 291 291 291 290 289 289